Melbourne Airport, Australia

5:07 AM AEST on July 26, 2017 (GMT +1000)
Melbourne International

Weather History for YMML - January, 2014

Change the Weather History Date:

Thursday, January 2, 2014

  Actual Average Record
Temperature  
Mean Temperature 64 °F -  
Max Temperature 73 °F 77 °F 104 °F (2015)
Min Temperature 54 °F 55 °F 46 °F (2009)
Degree Days  
Heating Degree Days 2    
Growing Degree Days 14 (Base 50)    
Moisture  
Dew Point 51 °F    
Average Humidity 65    
Maximum Humidity 94    
Minimum Humidity 30    
Precipitation  
Precipitation 0.00 in 0.06 in - ()
Sea Level Pressure  
Sea Level Pressure 29.75 in    
Wind  
Wind Speed 11 mph ()    
Max Wind Speed 17 mph    
Max Gust Speed -    
Visibility 7.6 miles    
Events Rain    
Averages and records for this station are not official NWS values.
T = Trace of Precipitation, MM = Missing Value Source: Averaged Metar Reports

Daily Weather History Graph

Daily Weather History Graph

Search for Another Location

Airport or City:

Trip Planner

Search our weather history database for the weather conditions in past years. The results will help you decide how hot, cold, wet, or windy it might be!

Date:

Astronomy

Jan. 02, 2014 Rise Set
Actual Time 6:03 AM AEDT 8:45 PM AEDT
Civil Twilight 5:32 AM AEDT 9:16 PM AEDT
Nautical Twilight 4:53 AM AEDT 9:55 PM AEDT
Astronomical Twilight 4:09 AM AEDT 10:38 PM AEDT
Moon 6:47 AM AEDT (1/2) 9:09 PM AEDT (1/2)
Length of Visible Light 15h 44m
Length of Day
14h 42m
New Moon, 1% of the Moon is Illuminated
Jan 2
New Moon
Jan 8
First Quarter
Jan 16
Full
Jan 24
Last Quarter
Jan 31
New

Hourly Weather History & Observations

Time (AEDT) Temp. Dew Point Humidity Pressure Visibility Wind Dir Wind Speed Gust Speed Precip Events Conditions
12:00 AM 65 °F 62 °F 87% 29.70 in 19 mi SW 12.7 mph - - Rain Light Drizzle
12:00 AM 64.4 °F 62.6 °F 94% 29.71 in 6.2 mi SW 12.7 mph - N/A   Mostly Cloudy
12:30 AM 64.4 °F 60.8 °F 88% 29.71 in 6.2 mi SW 11.5 mph - N/A   Mostly Cloudy
1:00 AM 63 °F 60 °F 87% 29.71 in - SW 13.8 mph - -  
1:00 AM 62.6 °F 60.8 °F 94% 29.71 in 6.2 mi SW 13.8 mph - N/A   Mostly Cloudy
1:30 AM 62.6 °F 59.0 °F 88% 29.71 in 6.2 mi WSW 16.1 mph - N/A   Mostly Cloudy
2:00 AM 61 °F 57 °F 82% 29.70 in - SW 12.7 mph - -  
2:00 AM 60.8 °F 57.2 °F 88% 29.71 in 6.2 mi SW 12.7 mph - N/A   Mostly Cloudy
2:30 AM 60.8 °F 55.4 °F 82% 29.68 in 6.2 mi SW 15.0 mph - N/A   Mostly Cloudy
3:00 AM 59 °F 54 °F 77% 29.70 in 11 mi SW 12.7 mph - -   Haze
3:00 AM 59.0 °F 53.6 °F 82% 29.71 in 6.2 mi SW 12.7 mph - N/A   Mostly Cloudy
3:30 AM 59.0 °F 53.6 °F 82% 29.71 in 6.2 mi WSW 10.4 mph - N/A   Mostly Cloudy
4:00 AM 57 °F 53 °F 82% 29.71 in - West 9.2 mph - -  
4:00 AM 57.2 °F 53.6 °F 88% 29.71 in 6.2 mi West 9.2 mph - N/A   Mostly Cloudy
4:30 AM 57.2 °F 51.8 °F 82% 29.68 in 6.2 mi NW 2.3 mph - N/A   Mostly Cloudy
5:00 AM 55 °F 52 °F 87% 29.72 in - NW 5.8 mph - -  
5:00 AM 55.4 °F 51.8 °F 88% 29.71 in 6.2 mi NW 5.8 mph - N/A   Mostly Cloudy
5:30 AM 55.4 °F 51.8 °F 88% 29.71 in 6.2 mi WNW 9.2 mph - N/A   Mostly Cloudy
6:00 AM 55 °F 52 °F 84% 29.73 in 9 mi WSW 9.2 mph - -   Haze
6:00 AM 55.4 °F 51.8 °F 88% 29.74 in 6.2 mi WSW 9.2 mph - N/A   Mostly Cloudy
6:30 AM 55.4 °F 51.8 °F 88% 29.74 in 6.2 mi WSW 9.2 mph - N/A   Mostly Cloudy
7:00 AM 56 °F 52 °F 80% 29.76 in - WSW 8.1 mph - -  
7:00 AM 55.4 °F 51.8 °F 88% 29.77 in 6.2 mi WSW 8.1 mph - N/A   Mostly Cloudy
7:30 AM 59.0 °F 50.0 °F 72% 29.77 in 6.2 mi WSW 10.4 mph - N/A   Mostly Cloudy
8:00 AM 59 °F 51 °F 67% 29.79 in - SW 15.0 mph - -  
8:00 AM 59.0 °F 51.8 °F 77% 29.80 in 6.2 mi SW 15.0 mph - N/A   Mostly Cloudy
8:30 AM 60.8 °F 50.0 °F 68% 29.80 in 6.2 mi SW 13.8 mph - N/A   Mostly Cloudy
9:00 AM 60 °F 47 °F 53% 29.80 in 9 mi SSW 16.1 mph - -   Haze
9:00 AM 60.8 °F 48.2 °F 63% 29.80 in 6.2 mi SSW 16.1 mph - N/A   Mostly Cloudy
9:30 AM 62.6 °F 48.2 °F 59% 29.80 in 6.2 mi SW 15.0 mph - N/A   Mostly Cloudy
10:00 AM 65 °F 47 °F 41% 29.79 in - SW 12.7 mph - -  
10:00 AM 64.4 °F 46.4 °F 52% 29.77 in 6.2 mi SW 12.7 mph - N/A   Mostly Cloudy
10:30 AM 66.2 °F 46.4 °F 49% 29.80 in 6.2 mi SSW 10.4 mph - N/A   Mostly Cloudy
11:00 AM 66 °F 46 °F 37% 29.78 in - South 13.8 mph - -  
11:00 AM 66.2 °F 46.4 °F 49% 29.77 in 6.2 mi South 13.8 mph - N/A   Mostly Cloudy
11:30 AM 68.0 °F 46.4 °F 46% 29.77 in 6.2 mi South 11.5 mph - N/A   Mostly Cloudy
12:00 PM 69 °F 45 °F 31% 29.80 in 16 mi South 12.7 mph - -   Haze
12:00 PM 69.8 °F 44.6 °F 40% 29.80 in 6.2 mi South 12.7 mph - N/A   Mostly Cloudy
12:30 PM 69.8 °F 46.4 °F 43% 29.80 in 6.2 mi South 10.4 mph - N/A   Mostly Cloudy
1:00 PM 71 °F 46 °F 30% 29.80 in - South 8.1 mph - -  
1:00 PM 71.6 °F 46.4 °F 41% 29.80 in 6.2 mi South 8.1 mph - N/A   Mostly Cloudy
1:30 PM 69.8 °F 50.0 °F 49% 29.80 in 6.2 mi South 9.2 mph - N/A   Mostly Cloudy
2:00 PM 72 °F 49 °F 33% 29.78 in - SSE 12.7 mph - -  
2:00 PM 71.6 °F 48.2 °F 43% 29.77 in 6.2 mi SSE 12.7 mph - N/A   Mostly Cloudy
2:30 PM 71.6 °F 50.0 °F 46% 29.77 in - SSE 12.7 mph - N/A   Clear
3:00 PM 73 °F 49 °F 32% 29.75 in 16 mi SE 10.4 mph - -   Haze
3:00 PM 73.4 °F 50.0 °F 44% 29.74 in - SE 10.4 mph - N/A   Clear
3:30 PM 73.4 °F 50.0 °F 44% 29.77 in - South 12.7 mph - N/A   Clear
4:00 PM 71 °F 50 °F 37% 29.76 in - SSE 13.8 mph - -  
4:00 PM 71.6 °F 50.0 °F 46% 29.77 in - SSE 13.8 mph - N/A   Clear
4:30 PM 69.8 °F 51.8 °F 53% 29.74 in - SSE 17.3 mph - N/A   Clear
5:00 PM 67 °F 51 °F 47% 29.75 in - SSE 16.1 mph - -  
5:00 PM 66.2 °F 51.8 °F 60% 29.74 in - SSE 16.1 mph - N/A   Clear
5:30 PM 66.2 °F 51.8 °F 60% 29.74 in - SSE 15.0 mph - N/A   Clear
6:00 PM 64 °F 51 °F 53% 29.75 in 12 mi South 16.1 mph - -   Clear
6:00 PM 64.4 °F 51.8 °F 64% 29.74 in - South 16.1 mph - N/A   Clear
6:30 PM 62.6 °F 51.8 °F 68% 29.74 in - South 13.8 mph - N/A   Clear
7:00 PM 63 °F 51 °F 55% 29.75 in - South 11.5 mph - -  
7:00 PM 62.6 °F 51.8 °F 68% 29.74 in - South 11.5 mph - N/A   Clear
7:30 PM 62.6 °F 50.0 °F 63% 29.77 in - South 10.4 mph - N/A   Clear
8:00 PM 61 °F 51 °F 60% 29.76 in - South 8.1 mph - -  
8:00 PM 60.8 °F 50.0 °F 68% 29.77 in - South 8.1 mph - N/A   Clear
8:30 PM 60.8 °F 51.8 °F 72% 29.77 in - South 8.1 mph - N/A   Clear
9:00 PM 60 °F 51 °F 65% 29.77 in 11 mi South 6.9 mph - -   Haze
9:00 PM 60.8 °F 51.8 °F 72% 29.77 in - South 6.9 mph - N/A   Clear
9:30 PM 59.0 °F 51.8 °F 77% 29.77 in - South 6.9 mph - N/A   Clear
10:00 PM 60 °F 51 °F 65% 29.77 in - South 9.2 mph - -  
10:00 PM 59.0 °F 51.8 °F 77% 29.77 in - South 9.2 mph - N/A   Clear
10:30 PM 59.0 °F 51.8 °F 77% 29.77 in - South 9.2 mph - N/A   Clear
11:00 PM 59 °F 51 °F 68% 29.75 in - SSE 5.8 mph - -  
11:00 PM 59.0 °F 51.8 °F 77% 29.74 in - SSE 5.8 mph - N/A   Clear
11:30 PM 59.0 °F 51.8 °F 77% 29.74 in 6.2 mi SSW 6.9 mph - N/A   Mostly Cloudy